Location: Unnamed
(51.5169°N, 0.1311°W)
Time: 05:35:00
(UTC+01:00)

Vanguard 1 - Pass Details

Date: 17 August 2024
Orbit: 649 x 3825 km, 34.2° (Epoch: 16 September)

Event Time Altitude Azimuth Distance (km) Brightness Sun altitude
Rises 21:10:11 0° 203° (SSW) 3,543 12.8 -8.0°
Reaches altitude 10° 21:13:32 10° 180° (S) 2,956 12.2 -8.4°
Maximum altitude 21:17:42 16° 145° (SE) 2,999 12.0 -9.0°
Drops below altitude 10° 21:23:10 10° 112° (ESE) 4,105 12.6 -9.7°
Enters shadow 21:23:19 10° 111° (ESE) 4,144 12.6 -9.7°
